Location: Unspecified
(0.0000°N, 0.0000°E)
Time: 14:40:23
(UTC+00:00)

deb Delta 126 - Pass Details

Date: 21 February 2026
Orbit: 1458 x 1580 km, 101.9° (Epoch: 6 March)

Event Time Altitude Azimuth Distance (km) Brightness Sun altitude
Rises 01:45:37 0° 61° (ENE) 4,759 ? -64.8°
Enters shadow 01:48:43 - 75° (ENE) 4,136 ? -64.1°
Exits shadow 01:52:50 11° 100° (E) 3,671 ? -63.2°
Maximum altitude 01:54:03 12° 108° (ESE) 3,642 ? -62.9°
Drops below altitude 10° 01:56:40 10° 126° (SE) 3,763 ? -62.3°
Sets 02:02:20 0° 155° (SSE) 4,727 ? -61.0°
